1496865600.62,35435,18.63,73972.3,1.15,-4.61,-4.57,0,*79
1496865601.84,35436,18.63,73970.5,1.17,-4.61,-4.61,0,*7D
1496865603.06,35437,18.63,73970.3,1.15,-4.69,-4.61,0,*76
1496865604.28,35438,18.63,73972.8,1.17,-4.61,-4.61,0,*73
1496865605.51,35439,18.63,73968.5,1.13,-4.65,-4.61,0,*72
1496865606.7,35440,18.63,73972.0,1.15,-4.61,-4.57,0,*7B
1496865607.93,35441,18.63,73972.0,1.17,-4.57,-4.57,0,*7D
1496865609.15,35442,18.63,73968.3,1.17,-4.61,-4.57,0,*7B
1496865610.37,35443,18.63,73968.8,1.17,-4.61,-4.57,0,*7A
1496865611.59,35444,18.63,73970.0,1.17,-4.61,-4.61,0,*78
1496865612.8,35445,18.63,73970.0,1.17,-4.61,-4.49,0,*73
1496865614.02,35446,18.63,73970.5,1.17,-4.61,-4.49,0,*70
1496865615.22,35447,18.63,73970.3,1.15,-4.61,-4.57,0,*7C
1496865616.44,35448,18.63,73970.8,1.17,-4.61,-4.57,0,*71
1496865617.66,35449,18.63,73972.5,1.15,-4.69,-4.57,0,*7A
1496865618.88,35450,18.63,73974.0,1.17,-4.61,-4.57,0,*78
1496865620.1,35451,18.63,73970.5,1.17,-4.61,-4.57,0,*79
1496865621.32,35452,18.63,73972.0,1.17,-4.61,-4.57,0,*7A
1496865622.56,35453,18.63,73970.3,1.17,-4.69,-4.61,0,*76
1496865623.8,35454,18.63,73972.5,1.17,-4.69,-4.57,0,*74
1496865625.02,35455,18.63,73970.0,1.17,-4.61,-4.57,0,*7D
1496865626.26,35456,18.63,73970.5,1.17,-4.69,-4.61,0,*73
1496865627.49,35457,18.63,73970.5,1.17,-4.69,-4.57,0,*77
1496865628.7,35458,18.63,73968.5,1.15,-4.61,-4.57,0,*72
1496865629.93,35459,18.63,73970.8,1.17,-4.69,-4.61,0,*7C
1496865631.15,35460,18.63,73970.8,1.21,-4.57,-4.57,0,*7B
1496865632.39,35461,18.63,73970.8,1.17,-4.69,-4.57,0,*72
1496865633.61,35462,18.63,73970.8,1.21,-4.65,-4.57,0,*78
1496865634.83,35463,18.63,73970.8,1.17,-4.61,-4.57,0,*78
1496865636.07,35464,18.63,73968.5,1.17,-4.69,-4.57,0,*77
1496865637.29,35465,18.63,73968.0,1.15,-4.69,-4.57,0,*74
1496865638.49,35466,18.63,73970.0,1.15,-4.57,-4.57,0,*7A
1496865639.69,35467,18.63,73972.8,1.15,-4.61,-4.57,0,*7E
1496865640.91,35468,18.63,73974.3,1.17,-4.61,-4.57,0,*73
1496865642.14,35469,18.63,73970.3,1.17,-4.61,-4.57,0,*72
1496865643.37,35470,18.63,73972.0,1.17,-4.69,-4.57,0,*72
1496865644.59,35471,18.63,73972.3,1.17,-4.61,-4.49,0,*74
1496865645.83,35472,18.63,73972.0,1.17,-4.69,-4.61,0,*75
1496865647.07,35473,18.63,73972.8,1.17,-4.69,-4.61,0,*74
1496865648.33,35474,18.63,73972.5,1.17,-4.69,-4.69,0,*7B
1496865649.59,35475,18.63,73972.3,1.17,-4.69,-4.69,0,*7A
1496865650.83,35476,18.63,73972.5,1.17,-4.69,-4.61,0,*71
1496865652.06,35477,18.63,73968.0,1.17,-4.69,-4.61,0,*70
1496865653.28,35478,18.63,73970.3,1.17,-4.61,-4.57,0,*72
1496865654.51,35479,18.63,73968.8,1.17,-4.61,-4.57,0,*73
1496865655.73,35480,18.63,73972.5,1.17,-4.61,-4.57,0,*75
1496865656.96,35481,18.63,73968.5,1.17,-4.69,-4.57,0,*7C
1496865658.2,35482,18.63,73972.3,1.17,-4.69,-4.57,0,*7F
1496865659.44,35483,18.63,73970.0,1.17,-4.69,-4.57,0,*7E
1496865660.68,35484,18.63,73970.8,1.17,-4.69,-4.61,0,*7C
1496865661.9,35485,18.63,73974.3,1.21,-4.65,-4.57,0,*71
1496865663.11,35486,18.63,73972.8,1.21,-4.65,-4.57,0,*72
1496865664.33,35487,18.63,73974.8,1.21,-4.65,-4.57,0,*73
1496865665.57,35488,18.63,73974.5,1.17,-4.69,-4.61,0,*70
1496865666.79,35489,18.63,73974.3,1.21,-4.65,-4.57,0,*7D
1496865668.03,35490,18.63,73974.3,1.17,-4.69,-4.61,0,*79
1496865669.27,35491,18.63,73974.0,1.17,-4.69,-4.61,0,*78
1496865670.5,35492,18.63,73974.8,1.17,-4.69,-4.61,0,*7B
1496865671.76,35493,18.63,73972.0,1.17,-4.69,-4.69,0,*72
1496865673.0,35494,18.63,73970.0,1.17,-4.69,-4.61,0,*7D
1496865674.22,35495,18.63,73974.3,1.17,-4.61,-4.57,0,*71
1496865675.46,35496,18.63,73974.5,1.17,-4.69,-4.57,0,*7A
1496865676.7,35497,18.63,73974.3,1.17,-4.69,-4.57,0,*7B
1496865677.92,35498,18.63,73976.0,1.17,-4.61,-4.57,0,*7C
1496865679.14,35499,18.63,73970.8,1.21,-4.65,-4.53,0,*78
1496865680.38,35500,18.63,73974.5,1.17,-4.69,-4.57,0,*74
1496865681.61,35501,18.63,73972.0,1.17,-4.69,-4.61,0,*70
1496865682.83,35502,18.63,73974.3,1.21,-4.65,-4.57,0,*7F
1496865684.07,35503,18.63,73972.3,1.17,-4.69,-4.61,0,*72
1496865685.33,35504,18.63,73972.0,1.17,-4.69,-4.69,0,*7D
1496865686.57,35505,18.63,73972.0,1.17,-4.69,-4.61,0,*74
1496865687.83,35506,18.63,73976.8,1.17,-4.69,-4.69,0,*7F
1496865689.09,35507,18.63,73972.3,1.17,-4.69,-4.69,0,*7E
1496865690.33,35508,18.63,73974.3,1.17,-4.73,-4.61,0,*72
1496865691.57,35509,18.63,73972.8,1.21,-4.69,-4.65,0,*79
1496865692.83,35510,18.63,73972.3,1.17,-4.73,-4.69,0,*73
1496865694.1,35511,18.63,73972.5,1.17,-4.73,-4.73,0,*79
1496865695.36,35512,18.63,73974.5,1.21,-4.69,-4.69,0,*7F
1496865696.62,35513,18.63,73974.0,1.17,-4.73,-4.73,0,*7B
1496865697.89,35514,18.63,73972.0,1.17,-4.73,-4.69,0,*77
1496865699.13,35515,18.63,73974.0,1.17,-4.73,-4.61,0,*7E
1496865700.36,35516,18.63,73970.8,1.21,-4.69,-4.65,0,*77
1496865701.63,35517,18.63,73970.0,1.17,-4.73,-4.69,0,*74
1496865702.89,35518,18.63,73974.0,1.17,-4.73,-4.69,0,*7B
1496865704.16,35519,18.63,73970.8,1.17,-4.73,-4.69,0,*7A
1496865705.42,35520,18.63,73972.0,1.17,-4.73,-4.69,0,*70
1496865706.69,35521,18.63,73972.8,1.17,-4.73,-4.69,0,*71
1496865707.95,35522,18.63,73970.3,1.17,-4.73,-4.73,0,*79
1496865709.21,35523,18.63,73972.3,1.17,-4.73,-4.73,0,*78
1496865710.47,35524,18.63,73974.3,1.21,-4.69,-4.69,0,*7A
1496865711.74,35525,18.63,73974.8,1.17,-4.73,-4.73,0,*7E
1496865713.0,35526,18.63,73974.5,1.17,-4.73,-4.73,0,*7D
1496865714.23,35527,18.63,73974.5,1.21,-4.69,-4.65,0,*75
1496865715.5,35528,18.63,73974.3,1.17,-4.73,-4.69,0,*78
1496865716.76,35529,18.63,73972.0,1.17,-4.73,-4.69,0,*79
1496865718.03,35530,18.63,73974.8,1.17,-4.73,-4.69,0,*71
1496865719.29,35531,18.63,73968.3,1.17,-4.73,-4.73,0,*7B
1496865720.55,35532,18.63,73974.0,1.17,-4.81,-4.73,0,*75
1496865721.8,35533,18.63,73972.3,1.17,-4.73,-4.65,0,*7E
1496865723.03,35534,18.63,73972.3,1.21,-4.69,-4.65,0,*77
1496865724.3,35535,18.63,73974.0,1.17,-4.73,-4.69,0,*74
1496865725.56,35536,18.63,73972.0,1.17,-4.73,-4.73,0,*7C
1496865726.82,35537,18.63,73972.0,1.17,-4.73,-4.69,0,*76
1496865728.09,35538,18.63,73972.3,1.17,-4.73,-4.73,0,*72
1496865729.35,35539,18.63,73972.0,1.17,-4.81,-4.73,0,*7E
1496865730.61,35540,18.63,73974.5,1.17,-4.81,-4.69,0,*7B
1496865731.88,35541,18.63,73974.8,1.17,-4.73,-4.69,0,*77
1496865733.14,35542,18.63,73974.0,1.17,-4.81,-4.73,0,*72
1496865734.4,35543,18.63,73972.8,1.17,-4.73,-4.73,0,*7E
1496865735.67,35544,18.63,73974.8,1.17,-4.73,-4.73,0,*79
1496865736.93,35545,18.63,73974.3,1.17,-4.81,-4.73,0,*75
1496865738.19,35546,18.63,73974.0,1.17,-4.73,-4.73,0,*7B
1496865739.46,35547,18.63,73972.5,1.17,-4.81,-4.81,0,*7A
1496865740.72,35548,18.63,73972.8,1.17,-4.81,-4.81,0,*75
1496865741.99,35549,18.63,73974.5,1.17,-4.81,-4.73,0,*79
1496865743.24,35550,18.63,73972.5,1.21,-4.77,-4.69,0,*76
1496865744.51,35551,18.63,73974.5,1.17,-4.81,-4.73,0,*70
1496865745.77,35552,18.63,73978.0,1.17,-4.81,-4.81,0,*7E
1496865747.03,35553,18.63,73974.5,1.17,-4.81,-4.77,0,*76
1496865748.3,35554,18.63,73974.8,1.17,-4.81,-4.81,0,*78
1496865749.56,35555,18.63,73974.8,1.17,-4.81,-4.81,0,*79
1496865750.83,35556,18.63,73974.8,1.17,-4.73,-4.81,0,*77
1496865752.09,35557,18.63,73972.5,1.17,-4.73,-4.81,0,*76
1496865753.36,35558,18.63,73974.0,1.17,-4.81,-4.81,0,*74
1496865754.62,35559,18.63,73972.8,1.17,-4.73,-4.73,0,*75
1496865755.88,35560,18.63,73974.8,1.17,-4.81,-4.73,0,*72
1496865757.15,35561,18.63,73974.0,1.17,-4.81,-4.73,0,*73
1496865758.41,35562,18.63,73972.5,1.17,-4.73,-4.73,0,*7D
1496865759.67,35563,18.63,73974.3,1.17,-4.81,-4.73,0,*71
1496865760.94,35564,18.63,73974.8,1.17,-4.73,-4.81,0,*76
1496865762.18,35565,18.63,73974.5,1.15,-4.81,-4.81,0,*78
1496865763.43,35566,18.63,73974.3,1.15,-4.81,-4.81,0,*7B
1496865764.69,35567,18.63,73974.0,1.17,-4.73,-4.81,0,*75
1496865765.95,35568,18.63,73972.3,1.17,-4.81,-4.73,0,*7A
1496865767.22,35569,18.63,73972.0,1.17,-4.73,-4.73,0,*76
1496865768.48,35570,18.63,73974.5,1.21,-4.77,-4.69,0,*74
1496865769.74,35571,18.63,73974.8,1.17,-4.73,-4.69,0,*74
1496865771.0,35572,18.63,73972.0,1.21,-4.69,-4.69,0,*79
1496865772.26,35573,18.63,73976.0,1.17,-4.73,-4.73,0,*7D
1496865773.53,35574,18.63,73972.0,1.17,-4.73,-4.73,0,*7A
1496865774.77,35575,18.63,73974.8,1.15,-4.73,-4.73,0,*79
1496865776.03,35576,18.63,73974.0,1.17,-4.73,-4.73,0,*78
1496865777.3,35577,18.63,73972.8,1.17,-4.73,-4.73,0,*79
1496865778.53,35578,18.63,73972.5,1.21,-4.69,-4.65,0,*7F
1496865779.8,35579,18.63,73972.5,1.17,-4.73,-4.69,0,*7C
1496865781.06,35580,18.63,73972.8,1.17,-4.73,-4.69,0,*7A
1496865782.32,35581,18.63,73978.3,1.21,-4.77,-4.69,0,*7A
1496865783.58,35582,18.63,73974.8,1.21,-4.77,-4.69,0,*79
1496865784.84,35583,18.63,73974.8,1.21,-4.77,-4.69,0,*78
1496865786.1,35584,18.63,73972.3,1.17,-4.73,-4.69,0,*7E
1496865787.37,35585,18.63,73978.0,1.17,-4.73,-4.73,0,*74
1496865788.63,35586,18.63,73972.3,1.17,-4.73,-4.73,0,*77
1496865789.89,35587,18.63,73972.3,1.17,-4.73,-4.73,0,*76
1496865791.15,35588,18.63,73972.5,1.21,-4.69,-4.69,0,*7C
1496865792.42,35589,18.63,73972.8,1.17,-4.81,-4.73,0,*75
1496865793.68,35590,18.63,73974.3,1.17,-4.81,-4.81,0,*70
1496865794.94,35591,18.63,73974.3,1.17,-4.93,-4.85,0,*76
1496865796.21,35592,18.63,73972.8,1.17,-4.85,-4.81,0,*76
1496865797.47,35593,18.63,73978.0,1.17,-4.93,-4.81,0,*70
1496865798.73,35594,18.63,73974.5,1.21,-4.81,-4.77,0,*78
1496865799.99,35595,18.63,73974.0,1.17,-4.85,-4.81,0,*71
1496865801.25,35596,18.63,73976.8,1.17,-4.81,-4.81,0,*76
1496865802.51,35597,18.63,73974.8,1.21,-4.77,-4.77,0,*72
1496865803.77,35598,18.63,73976.5,1.21,-4.77,-4.77,0,*7D
1496865805.03,35599,18.63,73976.0,1.17,-4.85,-4.85,0,*79
1496865806.29,35600,18.63,73976.5,1.17,-4.85,-4.81,0,*7E
1496865807.56,35601,18.63,73972.5,1.17,-4.81,-4.81,0,*7B
1496865808.82,35602,18.63,73976.5,1.17,-4.81,-4.81,0,*78
1496865810.08,35603,18.63,73972.0,1.17,-4.85,-4.81,0,*7D
1496865811.35,35604,18.63,73978.3,1.17,-4.81,-4.81,0,*7E
1496865812.61,35605,18.63,73978.0,1.21,-4.81,-4.77,0,*73
1496865813.87,35606,18.63,73976.5,1.21,-4.77,-4.81,0,*70
1496865815.13,35607,18.63,73978.3,1.17,-4.85,-4.85,0,*7D
1496865816.39,35608,18.63,73972.8,1.17,-4.85,-4.81,0,*76
1496865817.65,35609,18.63,73976.8,1.17,-4.85,-4.81,0,*77
1496865818.92,35610,18.63,73974.0,1.17,-4.85,-4.81,0,*7F
1496865820.18,35611,18.63,73976.5,1.17,-4.85,-4.85,0,*7A
1496865821.44,35612,18.63,73978.3,1.21,-4.89,-4.77,0,*7D
1496865822.71,35613,18.63,73978.3,1.17,-4.89,-4.81,0,*70
1496865823.98,35614,18.63,73974.8,1.17,-4.85,-4.85,0,*7F
1496865825.24,35615,18.63,73978.5,1.17,-4.93,-4.85,0,*79
1496865826.5,35616,18.63,73976.3,1.17,-4.85,-4.85,0,*7D
1496865827.74,35617,18.63,73976.0,1.17,-4.99,-4.93,0,*76
1496865828.97,35618,18.63,73978.3,1.17,-4.99,-4.93,0,*79
1496865830.23,35619,18.63,73976.5,1.17,-4.93,-4.93,0,*72
1496865831.47,35620,18.63,73974.8,1.15,-4.93,-4.93,0,*7A
1496865832.7,35621,18.63,73976.0,1.17,-4.93,-4.99,0,*73
1496865833.94,35622,18.63,73974.0,1.17,-4.99,-4.93,0,*70
1496865835.17,35623,18.63,73974.0,1.17,-4.93,-4.99,0,*71
1496865836.41,35624,18.63,73978.5,1.17,-4.99,-4.93,0,*76
1496865837.64,35625,18.63,73976.0,1.17,-4.99,-4.93,0,*77
1496865838.91,35626,18.63,73972.5,1.17,-4.93,-4.85,0,*79
1496865840.17,35627,18.63,73978.8,1.17,-4.93,-4.85,0,*78
1496865841.39,35628,18.63,73976.5,1.15,-4.99,-4.93,0,*78
1496865842.58,35629,18.63,73972.0,1.15,-4.99,-4.99,0,*73
1496865843.79,35630,18.63,73976.5,1.15,-4.99,-4.93,0,*71
1496865845.01,35631,18.63,73974.5,1.15,-4.99,-4.93,0,*70
1496865846.23,35632,18.63,73972.3,1.15,-4.99,-4.93,0,*73
1496865847.44,35633,18.63,73976.8,1.13,-4.99,-4.99,0,*7E
1496865848.69,35634,18.63,73974.8,1.15,-5.07,-4.93,0,*73
1496865849.93,35635,18.63,73976.3,1.17,-4.99,-4.85,0,*71
1496865851.19,35636,18.63,73974.8,1.17,-4.85,-4.85,0,*7F
1496865852.43,35637,18.63,73972.5,1.15,-4.93,-4.93,0,*7C
1496865853.65,35638,18.63,73972.8,1.15,-4.93,-4.99,0,*79
1496865854.86,35639,18.63,73972.5,1.15,-4.85,-4.99,0,*7F
1496865856.1,35640,18.63,73976.3,1.15,-4.93,-4.93,0,*7C
1496865857.31,35641,18.63,73974.0,1.15,-4.93,-4.99,0,*77
1496865858.53,35642,18.63,73976.3,1.15,-4.99,-4.93,0,*74
1496865859.81,35643,18.63,73974.5,1.17,-5.07,-5.07,0,*7D
1496865861.03,35644,18.63,73976.3,1.15,-4.99,-5.03,0,*7A
1496865862.24,35645,18.63,73974.3,1.17,-4.99,-4.99,0,*7B
1496865863.47,35646,18.63,73972.5,1.15,-5.07,-4.99,0,*7C
1496865864.71,35647,18.63,73978.8,1.15,-4.93,-4.93,0,*7B
1496865865.93,35648,18.63,73976.5,1.15,-5.07,-4.99,0,*72
1496865867.12,35649,18.63,73974.0,1.15,-4.99,-4.99,0,*75
1496865868.31,35650,18.63,73978.5,1.15,-4.99,-4.99,0,*7D
1496865869.56,35651,18.63,73978.3,1.13,-5.03,-4.99,0,*78
1496865870.84,35652,18.63,73974.8,1.13,-5.03,-5.03,0,*79
1496865872.11,35653,18.63,73978.0,1.13,-5.11,-5.03,0,*7B
1496865873.34,35654,18.63,73972.5,1.15,-5.07,-4.99,0,*7F
1496865874.56,35655,18.63,73974.8,1.15,-5.07,-4.99,0,*7E
1496865875.79,35656,18.63,73976.3,1.15,-5.07,-4.99,0,*7D
1496865877.06,35657,18.63,73974.8,1.17,-5.11,-5.07,0,*7F
1496865878.31,35658,18.63,73974.8,1.15,-5.11,-5.07,0,*72
1496865879.57,35659,18.63,73978.5,1.15,-5.07,-5.07,0,*74
1496865880.83,35660,18.63,73972.3,1.15,-5.07,-5.07,0,*7E
1496865882.08,35661,18.63,73974.0,1.15,-5.11,-5.07,0,*78
1496865883.36,35662,18.63,73974.5,1.13,-5.15,-5.11,0,*7E
1496865884.63,35663,18.63,73972.5,1.13,-5.15,-5.15,0,*7B
1496865885.91,35664,18.63,73974.5,1.13,-5.15,-5.15,0,*7C
1496865887.16,35665,18.63,73974.8,1.15,-5.19,-5.11,0,*73
1496865888.44,35666,18.63,73974.3,1.13,-5.15,-5.15,0,*7E
1496865889.7,35667,18.63,73972.3,1.15,-5.07,-5.07,0,*79
1496865890.94,35668,18.63,73974.3,1.13,-5.11,-4.99,0,*71
1496865892.22,35669,18.63,73974.8,1.13,-5.15,-5.11,0,*75
1496865893.46,35670,18.63,73972.8,1.15,-5.11,-5.11,0,*7F
1496865894.74,35671,18.63,73974.8,1.13,-5.11,-5.15,0,*7C
1496865896.01,35672,18.63,73972.3,1.13,-5.11,-5.11,0,*7B
1496865897.27,35673,18.63,73976.8,1.15,-5.07,-5.07,0,*7C
1496865898.54,35674,18.63,73974.8,1.13,-5.11,-5.11,0,*7D
1496865899.81,35675,18.63,73976.0,1.13,-5.11,-5.15,0,*78
1496865901.08,35676,18.63,73976.3,1.13,-5.11,-5.11,0,*7F
1496865902.35,35677,18.63,73974.0,1.13,-5.19,-5.11,0,*76
1496865903.63,35678,18.63,73972.5,1.13,-5.23,-5.15,0,*74
1496865904.92,35679,18.63,73974.0,1.13,-5.23,-5.23,0,*70
1496865906.2,35680,18.63,73974.8,1.13,-5.23,-5.23,0,*76
1496865907.48,35681,18.63,73974.0,1.13,-5.23,-5.23,0,*77
1496865908.76,35682,18.63,73974.5,1.13,-5.23,-5.23,0,*74
1496865910.04,35683,18.63,73976.0,1.13,-5.15,-5.15,0,*75
1496865911.32,35684,18.63,73972.3,1.13,-5.15,-5.15,0,*72
1496865912.59,35685,18.63,73978.0,1.13,-5.15,-5.11,0,*77
1496865913.88,35686,18.63,73972.0,1.13,-5.23,-5.23,0,*70
1496865915.13,35687,18.63,73974.0,1.11,-5.23,-5.15,0,*76
1496865916.38,35688,18.63,73972.0,1.11,-5.23,-5.31,0,*7F
1496865917.66,35689,18.63,73974.8,1.13,-5.23,-5.23,0,*7F
1496865918.94,35690,18.63,73972.5,1.13,-5.11,-5.11,0,*77
1496865920.21,35691,18.63,73978.5,1.13,-5.11,-5.15,0,*72
1496865921.46,35692,18.63,73974.8,1.15,-5.19,-5.27,0,*7E
1496865922.74,35693,18.63,73974.0,1.13,-5.23,-5.15,0,*71
1496865924.02,35694,18.63,73972.0,1.13,-5.23,-5.15,0,*76
1496865925.27,35695,18.63,73972.3,1.11,-5.15,-5.11,0,*74
1496865926.54,35696,18.63,73974.3,1.09,-5.11,-5.11,0,*7A
1496865927.81,35697,18.63,73972.5,1.13,-5.15,-5.11,0,*74
1496865929.09,35698,18.63,73972.3,1.13,-5.15,-5.11,0,*7B
1496865930.37,35699,18.63,73972.3,1.13,-5.15,-5.15,0,*7E
1496865931.65,35700,18.63,73974.5,1.13,-5.15,-5.15,0,*7F
1496865932.92,35701,18.63,73972.0,1.13,-5.27,-5.31,0,*79
1496865934.2,35702,18.63,73972.8,1.13,-5.31,-5.31,0,*7D
1496865935.48,35703,18.63,73976.3,1.13,-5.27,-5.31,0,*7B
1496865936.73,35704,18.63,73972.8,1.11,-5.27,-5.31,0,*7E
1496865937.97,35705,18.63,73974.3,1.11,-5.27,-5.31,0,*7F
1496865939.25,35706,18.63,73974.5,1.09,-5.31,-5.27,0,*75
1496865940.5,35707,18.63,73972.5,1.11,-5.27,-5.23,0,*7E
1496865941.75,35708,18.63,73974.0,1.09,-5.27,-5.35,0,*7F
1496865942.99,35709,18.63,73974.8,1.09,-5.31,-5.35,0,*79
1496865944.24,35710,18.63,73974.5,1.09,-5.31,-5.35,0,*71
1496865945.49,35711,18.63,73970.8,1.11,-5.27,-5.31,0,*7A
1496865946.76,35712,18.63,73974.8,1.09,-5.19,-5.27,0,*7A
1496865948.01,35713,18.63,73974.8,1.11,-5.27,-5.31,0,*78
1496865949.26,35714,18.63,73970.8,1.11,-5.27,-5.23,0,*7C
1496865950.54,35715,18.63,73974.0,1.09,-5.19,-5.19,0,*70
1496865951.81,35716,18.63,73972.5,1.09,-5.07,-5.07,0,*73
1496865953.09,35717,18.63,73972.8,1.09,-5.15,-5.07,0,*71
1496865954.36,35718,18.63,73972.3,1.09,-5.19,-5.15,0,*71
1496865955.64,35719,18.63,73970.0,1.09,-5.27,-5.15,0,*7D
1496865956.91,35720,18.63,73974.3,1.09,-5.19,-5.19,0,*76
1496865958.18,35721,18.63,73970.5,1.09,-5.19,-5.19,0,*77
1496865959.42,35722,18.63,73974.8,1.09,-5.27,-5.35,0,*77
1496865960.68,35723,18.63,73974.5,1.11,-5.27,-5.23,0,*78
1496865961.92,35724,18.63,73970.5,1.09,-5.27,-5.35,0,*71
1496865963.16,35725,18.63,73970.0,1.09,-5.31,-5.43,0,*76
1496865964.38,35726,18.63,73972.3,1.09,-5.35,-5.43,0,*71
1496865965.63,35727,18.63,73974.5,1.09,-5.35,-5.27,0,*72
1496865966.87,35728,18.63,73974.3,1.09,-5.31,-5.43,0,*7B
1496865968.12,35729,18.63,73972.8,1.09,-5.31,-5.35,0,*7B
1496865969.4,35730,18.63,73972.3,1.07,-5.31,-5.31,0,*79
1496865970.68,35731,18.63,73974.0,1.07,-5.31,-5.31,0,*78
1496865971.96,35732,18.63,73972.3,1.07,-5.31,-5.31,0,*7B
1496865973.24,35733,18.63,73972.8,1.07,-5.23,-5.31,0,*79
1496865974.52,35734,18.63,73968.5,1.07,-5.23,-5.19,0,*74
1496865975.8,35735,18.63,73972.5,1.09,-5.15,-5.15,0,*72
1496865977.07,35736,18.63,73970.8,1.09,-5.15,-5.15,0,*71
1496865978.34,35737,18.63,73972.0,1.09,-5.19,-5.19,0,*70
1496865979.61,35738,18.63,73974.5,1.09,-5.19,-5.15,0,*73
1496865980.89,35739,18.63,73974.8,1.09,-5.19,-5.19,0,*7E
1496865982.16,35740,18.63,73972.0,1.09,-5.19,-5.19,0,*70
1496865983.43,35741,18.63,73972.8,1.09,-5.27,-5.19,0,*7C
1496865984.7,35742,18.63,73970.8,1.09,-5.19,-5.19,0,*72
1496865985.99,35743,18.63,73972.3,1.07,-5.31,-5.23,0,*7E
1496865987.27,35744,18.63,73974.0,1.07,-5.31,-5.23,0,*79
1496865988.55,35745,18.63,73974.8,1.09,-5.15,-5.27,0,*74
1496865989.82,35746,18.63,73974.0,1.09,-5.15,-5.27,0,*77
1496865991.1,35747,18.63,73974.8,1.09,-5.27,-5.27,0,*77
1496865992.37,35748,18.63,73974.0,1.09,-5.19,-5.19,0,*78
1496865993.64,35749,18.63,73970.8,1.09,-5.27,-5.19,0,*74
1496865994.92,35750,18.63,73974.8,1.07,-5.31,-5.31,0,*7F
1496865996.2,35751,18.63,73972.5,1.09,-5.19,-5.19,0,*70
1496865997.47,35752,18.63,73974.5,1.09,-5.27,-5.19,0,*7E
1496865998.75,35753,18.63,73970.8,1.07,-5.31,-5.23,0,*7F
1496866000.04,35754,18.63,73972.0,1.07,-5.31,-5.23,0,*78
1496866001.32,35755,18.63,73972.8,1.07,-5.31,-5.23,0,*79
1496866002.6,35756,18.63,73974.3,1.07,-5.31,-5.23,0,*7A
1496866003.88,35757,18.63,73972.5,1.07,-5.23,-5.19,0,*71
1496866005.16,35758,18.63,73972.0,1.07,-5.23,-5.19,0,*7E
1496866006.45,35759,18.63,73970.8,1.07,-5.23,-5.23,0,*76
1496866007.73,35760,18.63,73974.3,1.07,-5.31,-5.23,0,*7F
1496866009.01,35761,18.63,73974.8,1.07,-5.23,-5.31,0,*7E
1496866010.26,35762,18.63,73978.0,1.05,-5.31,-5.31,0,*7C
1496866011.51,35763,18.63,73972.5,1.07,-5.35,-5.31,0,*7B
1496866012.74,35764,18.63,73972.5,1.07,-5.35,-5.39,0,*74
1496866014.02,35765,18.63,73974.3,1.07,-5.31,-5.23,0,*7A
1496866015.27,35766,18.63,73974.5,1.05,-5.31,-5.19,0,*72
1496866016.55,35767,18.63,73974.0,1.07,-5.23,-5.19,0,*72
1496866017.83,35768,18.63,73974.0,1.07,-5.23,-5.19,0,*7D
1496866019.11,35769,18.63,73974.0,1.07,-5.23,-5.23,0,*75
1496866020.4,35770,18.63,73972.3,1.07,-5.31,-5.23,0,*7E
1496866021.67,35771,18.63,73974.3,1.07,-5.19,-5.19,0,*7C
1496866022.96,35772,18.63,73972.5,1.07,-5.23,-5.23,0,*7F
1496866024.24,35773,18.63,73972.0,1.07,-5.23,-5.23,0,*7E
1496866025.5,35774,18.63,73974.5,1.05,-5.31,-5.23,0,*78
1496866026.78,35775,18.63,73974.5,1.07,-5.31,-5.19,0,*72
1496866028.06,35776,18.63,73972.5,1.07,-5.31,-5.23,0,*78
1496866029.34,35777,18.63,73974.0,1.07,-5.31,-5.19,0,*70
1496866030.62,35778,18.63,73974.8,1.07,-5.23,-5.23,0,*75
1496866031.91,35779,18.63,73972.5,1.07,-5.31,-5.23,0,*77
1496866033.19,35780,18.63,73978.3,1.07,-5.23,-5.23,0,*72
1496866034.47,35781,18.63,73976.5,1.07,-5.23,-5.23,0,*73
1496866035.75,35782,18.63,73972.5,1.07,-5.23,-5.19,0,*79
1496866037.04,35783,18.63,73974.5,1.07,-5.23,-5.19,0,*78
1496866038.31,35784,18.63,73976.0,1.07,-5.31,-5.19,0,*7C
1496866039.59,35785,18.63,73976.0,1.07,-5.31,-5.31,0,*77
1496866040.88,35786,18.63,73974.3,1.07,-5.31,-5.23,0,*77
1496866042.13,35787,18.63,73974.8,1.07,-5.35,-5.31,0,*71
1496866043.35,35788,18.63,73974.8,1.07,-5.35,-5.39,0,*76
1496866044.63,35789,18.63,73974.3,1.07,-5.31,-5.31,0,*7B
1496866045.92,35790,18.63,73974.8,1.07,-5.31,-5.23,0,*70
1496866047.14,35791,18.63,73974.3,1.05,-5.39,-5.31,0,*78
1496866048.42,35792,18.63,73972.5,1.07,-5.31,-5.31,0,*71
1496866049.7,35793,18.63,73974.5,1.07,-5.23,-5.19,0,*79
1496866050.98,35794,18.63,73974.3,1.07,-5.31,-5.23,0,*74
1496866052.23,35795,18.63,73972.8,1.05,-5.23,-5.19,0,*7D
1496866053.52,35796,18.63,73976.3,1.07,-5.31,-5.23,0,*76
1496866054.77,35797,18.63,73974.8,1.05,-5.23,-5.19,0,*7F
1496866056.05,35798,18.63,73974.0,1.07,-5.23,-5.23,0,*7B
1496866057.33,35799,18.63,73974.8,1.07,-5.23,-5.19,0,*73
1496866058.61,35800,18.63,73974.8,1.07,-5.23,-5.11,0,*74
1496866059.89,35801,18.63,73972.5,1.07,-5.31,-5.23,0,*77
1496866061.18,35802,18.63,73974.3,1.07,-5.31,-5.23,0,*74
1496866062.43,35803,18.63,73974.3,1.05,-5.23,-5.19,0,*7D
1496866063.71,35804,18.63,73976.3,1.07,-5.31,-5.23,0,*72
1496866064.97,35805,18.63,73974.8,1.05,-5.23,-5.23,0,*72
1496866066.22,35806,18.63,73972.3,1.05,-5.31,-5.19,0,*7B
1496866067.5,35807,18.63,73974.3,1.07,-5.31,-5.23,0,*71
1496866068.75,35808,18.63,73974.3,1.05,-5.31,-5.23,0,*7C
1496866070.01,35809,18.63,73974.0,1.05,-5.31,-5.23,0,*7D
1496866071.23,35810,18.63,73974.3,1.05,-5.35,-5.23,0,*71
1496866072.45,35811,18.63,73974.3,1.05,-5.39,-5.31,0,*7F
1496866073.71,35812,18.63,73974.8,1.07,-5.47,-5.31,0,*77
1496866074.93,35813,18.63,73972.8,1.05,-5.35,-5.31,0,*71
1496866076.15,35814,18.63,73974.3,1.07,-5.39,-5.39,0,*70
1496866077.38,35815,18.63,73978.0,1.07,-5.47,-5.47,0,*71
1496866078.6,35816,18.63,73974.5,1.05,-5.47,-5.31,0,*71
1496866079.82,35817,18.63,73974.0,1.05,-5.39,-5.31,0,*79
1496866081.05,35818,18.63,73972.3,1.05,-5.35,-5.23,0,*79
1496866082.3,35819,18.63,73972.3,1.05,-5.31,-5.23,0,*7C
1496866083.53,35820,18.63,73978.8,1.05,-5.35,-5.31,0,*71
1496866084.75,35821,18.63,73974.8,1.05,-5.39,-5.23,0,*7F
1496866086.0,35822,18.63,73970.3,1.07,-5.35,-5.31,0,*71
1496866087.26,35823,18.63,73974.8,1.05,-5.23,-5.23,0,*76
1496866088.51,35824,18.63,73972.0,1.05,-5.23,-5.07,0,*77
1496866089.76,35825,18.63,73974.0,1.05,-5.23,-5.11,0,*71
1496866091.01,35826,18.63,73968.5,1.05,-5.23,-5.19,0,*7A
1496866092.29,35827,18.63,73972.8,1.07,-5.23,-5.11,0,*71
1496866093.54,35828,18.63,73974.0,1.05,-5.31,-5.19,0,*77
1496866094.79,35829,18.63,73976.5,1.05,-5.31,-5.19,0,*76
1496866096.05,35830,18.63,73972.0,1.05,-5.31,-5.23,0,*77
1496866097.3,35831,18.63,73974.8,1.05,-5.23,-5.19,0,*7C
1496866098.58,35832,18.63,73974.3,1.07,-5.23,-5.19,0,*7D
1496866099.8,35833,18.63,73972.5,1.05,-5.39,-5.23,0,*7C
1496866101.0,35834,18.63,73972.5,1.05,-5.47,-5.39,0,*79
1496866102.19,35835,18.63,73974.5,1.05,-5.39,-5.39,0,*71
1496866103.39,35836,18.63,73972.0,1.05,-5.47,-5.39,0,*7B
1496866104.61,35837,18.63,73974.0,1.05,-5.39,-5.31,0,*7B
1496866105.8,35838,18.63,73972.3,1.05,-5.35,-5.39,0,*70
1496866107.02,35839,18.63,73972.3,1.03,-5.39,-5.43,0,*76
1496866108.26,35840,18.63,73974.5,1.03,-5.43,-5.27,0,*77
1496866109.51,35841,18.63,73972.3,1.03,-5.43,-5.27,0,*76
1496866110.73,35842,18.63,73970.0,1.05,-5.35,-5.19,0,*7F
1496866111.95,35843,18.63,73972.0,1.05,-5.39,-5.31,0,*78
1496866113.2,35844,18.63,73972.8,1.03,-5.39,-5.27,0,*7E
1496866114.41,35845,18.63,73974.3,1.03,-5.43,-5.35,0,*71
1496866115.67,35846,18.63,73974.0,1.05,-5.31,-5.23,0,*76
1496866116.91,35847,18.63,73972.3,1.03,-5.35,-5.23,0,*75
1496866118.16,35848,18.63,73970.8,1.03,-5.35,-5.27,0,*7E
1496866119.42,35849,18.63,73974.3,1.05,-5.31,-5.23,0,*79
1496866120.63,35850,18.63,73974.0,1.03,-5.39,-5.35,0,*78
1496866121.85,35851,18.63,73972.3,1.03,-5.39,-5.35,0,*79
1496866123.09,35852,18.63,73972.5,1.03,-5.43,-5.27,0,*74
1496866124.31,35853,18.63,73974.3,1.03,-5.39,-5.35,0,*7B
1496866125.56,35854,18.63,73970.5,1.03,-5.39,-5.27,0,*7F
1496866126.81,35855,18.63,73970.5,1.03,-5.39,-5.27,0,*7E